Погода в Терпеньи

Украина / Запорожская область     46°59′14″N   35°25′24″E
темп.,
°C
ветер,
м/с
пор.,
м/с
влажн.,
%
обл.,
%
осадки,
мм/ч
давл.,
гПа
погр.,
м
17 августа, ср
ср1700:00+23ююз36777 0.1 1010147
03:00+22зсз23790 0.2 101081
06:00+21з22760 0.0 101036
09:00+26зюз23581 0.0 1009613
12:00+29юз33444 0.0 10091719
15:00+32з33333 0.0 10082429
18:00+29ююз554562 0.0 1008346
21:00+26юз5960100 0.0 1008233
18 августа, чт
чт1800:00+24зюз486795 0.1 1008191
03:00+22з3677100 2.3 1009105
06:00+21зсз22785 0.2 100930
09:00+26ююз22597 0.2 1009496
12:00+31ююз44385 0.0 10081779
15:00+32ююз543553 0.0 10072053
18:00+31ю33379 0.0 10071327
21:00+24юз356325 0.1 1008113
19 августа, пт
пт1900:00+23сз35725 0.0 1008113
03:00+22сз227256 0.0 100731
06:00+22з117564 0.0 100811
09:00+27зсз1155100 0.0 1008422
12:00+31зюз223823 0.0 10081709
15:00+34зсз123096 0.0 10083123
18:00+32сз343482 0.0 10071183
21:00+23с2371100 3.1 101070
20 августа, сб
сб2000:00+22в367291 0.2 1010144
03:00+22св2275100 0.2 101019
06:00+21всв2379100 0.0 101147
09:00+26вюв456778 0.0 1011697
12:00+29в434769 0.0 10111423
15:00+31св3240100 0.0 10101817
18:00+30вюв224191 0.0 10101575
21:00+25юв36625 0.4 1010118
21 августа, вс
вс2100:00+23в376811 0.1 1011152
03:00+21в387610 0.1 1010217
06:00+21в5117399 0.6 1011458
09:00+24в7105393 0.6 1011823
12:00+29в773769 0.0 10101379
15:00+30в6732100 0.0 10091552
18:00+30вюв563321 0.0 10081427
21:00+26в224392 0.0 100845